Weather History for Meeker, CO

Change the Weather History Date:

Thursday, December 19, 2013

  Actual Average Record
Temperature  
Mean Temperature 36 °F 20 °F  
Max Temperature 46 °F 33 °F 46 °F (2013)
Min Temperature 25 °F 8 °F -15 °F (2012)
Degree Days  
Heating Degree Days 29 45  
Month to date heating degree days 976 811  
Since 1 July heating degree days 2874 2747  
Cooling Degree Days 0 0  
Month to date cooling degree days 0 0  
Year to date cooling degree days 324 172  
Moisture  
Dew Point 25 °F    
Average Humidity 65    
Maximum Humidity 92    
Minimum Humidity 37    
Precipitation  
Precipitation T in 0.04 in 0.26 in (2005)
Month to date precipitation 0.76 0.68  
Year to date precipitation 17.76 15.63  
Sea Level Pressure  
Sea Level Pressure 29.69 in    
Wind  
Wind Speed 6 mph (WNW)    
Max Wind Speed 15 mph    
Max Gust Speed 41 mph    
Visibility 9 miles    
Events Snow    
T = Trace of Precipitation, MM = Missing Value Source: NWS Daily Summary

Daily Weather History Graph

Daily Weather History Graph

Search for Another Location

Airport:

Trip Planner

Search our weather history database for the weather conditions in past years. The results will help you decide how hot, cold, wet, or windy it might be!

Date:

Astronomy

Dec. 19, 2013 Rise Set
Actual Time 7:29 AM MST 4:48 PM MST
Civil Twilight 6:58 AM MST 5:19 PM MST
Nautical Twilight 6:24 AM MST 5:53 PM MST
Astronomical Twilight 5:51 AM MST 6:26 PM MST
Moon 7:17 PM MST (12/19) 8:49 AM MST (12/19)
Length of Visible Light 10h 20m
Length of Day
9h 19m
Waning Gibbous, 95% of the Moon is Illuminated
Dec 19
Waning Gibbous
Dec 25
Last Quarter
Jan 1
New
Jan 7
First Quarter
Jan 15
Full

Hourly Weather History & Observations

Time (MST) Temp. Windchill Dew Point Humidity Pressure Visibility Wind Dir Wind Speed Gust Speed Precip Events Conditions
12:53 AM 30.9 °F 26.2 °F 23.0 °F 72% 29.76 in 10.0 mi NE 4.6 mph - N/A   Overcast
1:53 AM 32.0 °F - 23.0 °F 69% 29.72 in 10.0 mi Calm Calm - N/A   Overcast
2:36 AM 33.8 °F 23.9 °F 28.4 °F 81% 29.80 in 1.8 mi WSW 15.0 mph 41.4 mph 0.00 in Snow Light Snow
2:45 AM 33.8 °F 28.6 °F 30.2 °F 87% 29.79 in 1.5 mi WNW 5.8 mph - 0.00 in Snow Light Snow
2:51 AM 33.8 °F 27.7 °F 30.2 °F 87% 29.78 in 3.0 mi NNW 6.9 mph - 0.00 in Snow Light Snow
2:53 AM 33.1 °F 27.7 °F 30.0 °F 89% 29.72 in 3.0 mi North 5.8 mph - 0.00 in Snow Light Snow
3:11 AM 33.8 °F 23.9 °F 28.4 °F 81% 29.76 in 9.0 mi NE 15.0 mph - 0.00 in   Overcast
3:53 AM 33.1 °F 28.7 °F 28.9 °F 85% 29.69 in 10.0 mi NE 4.6 mph - 0.00 in   Overcast
4:53 AM 33.1 °F 30.0 °F 28.0 °F 82% 29.63 in 10.0 mi NNE 3.5 mph - N/A   Partly Cloudy
5:53 AM 30.9 °F 23.5 °F 28.0 °F 89% 29.61 in 10.0 mi West 8.1 mph - N/A   Clear
6:53 AM 28.0 °F - 25.0 °F 88% 29.63 in 10.0 mi Calm Calm - N/A   Clear
7:53 AM 26.1 °F 20.5 °F 24.1 °F 92% 29.62 in 10.0 mi East 4.6 mph - N/A   Clear
8:53 AM 39.9 °F 35.8 °F 21.9 °F 49% 29.57 in 10.0 mi WNW 5.8 mph - N/A   Mostly Cloudy
9:53 AM 42.1 °F 36.1 °F 19.9 °F 41% 29.59 in 10.0 mi West 10.4 mph - N/A   Scattered Clouds
10:53 AM 46.0 °F 43.9 °F 21.9 °F 39% 29.59 in 10.0 mi SW 4.6 mph - N/A   Clear
12:53 PM 44.1 °F 37.4 °F 21.0 °F 40% 29.64 in 10.0 mi SSW 13.8 mph 29.9 mph N/A   Unknown
1:53 PM 44.1 °F 37.7 °F 21.0 °F 40% 29.64 in 10.0 mi SSW 12.7 mph 21.9 mph N/A   Mostly Cloudy
2:53 PM 43.0 °F 37.2 °F 21.9 °F 43% 29.66 in 10.0 mi SSW 10.4 mph - N/A   Overcast
3:53 PM 41.0 °F 34.3 °F 23.0 °F 49% 29.68 in 10.0 mi West 11.5 mph - N/A   Mostly Cloudy
4:53 PM 39.9 °F 32.9 °F 21.9 °F 49% 29.70 in 10.0 mi West 11.5 mph - N/A   Overcast
5:34 PM 39.0 °F 30.6 °F 24.1 °F 55% 29.71 in 10.0 mi SSW 15.0 mph - N/A   Mostly Cloudy
5:53 PM 37.0 °F 30.4 °F 24.1 °F 59% 29.71 in 10.0 mi SW 9.2 mph - N/A   Partly Cloudy
6:53 PM 36.0 °F 33.3 °F 24.1 °F 62% 29.72 in 10.0 mi East 3.5 mph - N/A   Overcast
7:53 PM 34.0 °F 31.0 °F 25.0 °F 70% 29.72 in 10.0 mi NE 3.5 mph - N/A   Overcast
8:53 PM 32.0 °F 24.8 °F 26.1 °F 79% 29.72 in 10.0 mi NNE 8.1 mph - N/A   Overcast
9:53 PM 33.1 °F - 26.1 °F 75% 29.72 in 10.0 mi Calm Calm - N/A   Overcast
10:53 PM 34.0 °F - 26.1 °F 73% 29.73 in 10.0 mi Calm Calm - N/A   Overcast
11:53 PM 33.1 °F 30.0 °F 27.0 °F 78% 29.71 in 10.0 mi ESE 3.5 mph - N/A   Overcast